Year,Month,Day,Hour,Minute,Value (Times are PST for windgust in km/hr)
2018,07,05,00,01,3.20
2018,07,05,00,02,3.20
2018,07,05,00,04,3.20
2018,07,05,00,05,3.20
2018,07,05,00,25,9.60
2018,07,05,00,26,14.50
2018,07,05,00,27,22.50
2018,07,05,00,28,20.90
2018,07,05,00,29,22.50
2018,07,05,00,30,14.50
2018,07,05,00,31,14.50
2018,07,05,00,32,9.60
2018,07,05,00,33,12.90
2018,07,05,00,34,17.70
2018,07,05,00,35,17.70
2018,07,05,00,36,19.30
2018,07,05,00,37,29.00
2018,07,05,00,38,24.20
2018,07,05,00,39,9.60
2018,07,05,00,40,17.70
2018,07,05,00,41,9.60
2018,07,05,00,42,17.70
2018,07,05,00,43,16.10
2018,07,05,00,44,19.30
2018,07,05,00,45,9.60
2018,07,05,00,46,8.10
2018,07,05,00,47,17.70
2018,07,05,00,48,12.90
2018,07,05,00,49,19.30
2018,07,05,00,50,9.60
2018,07,05,00,51,8.10
2018,07,05,00,52,16.10
2018,07,05,00,53,17.70
2018,07,05,00,54,14.50
2018,07,05,00,55,17.70
2018,07,05,00,56,12.90
2018,07,05,00,57,24.20
2018,07,05,00,58,14.50
2018,07,05,00,59,24.20
2018,07,05,01,00,14.50
2018,07,05,01,01,19.30
2018,07,05,01,02,16.10
2018,07,05,01,03,17.70
2018,07,05,01,04,6.40
2018,07,05,01,05,4.80
2018,07,05,01,06,16.10
2018,07,05,01,07,14.50
2018,07,05,01,08,14.50
2018,07,05,01,09,8.10
2018,07,05,01,10,17.70
2018,07,05,01,11,17.70
2018,07,05,01,12,12.90
2018,07,05,01,13,19.30
2018,07,05,01,14,14.50
2018,07,05,01,15,1.60
2018,07,05,01,16,16.10
2018,07,05,01,17,14.50
2018,07,05,01,18,9.60
2018,07,05,01,19,12.90
2018,07,05,01,20,14.50
2018,07,05,01,21,16.10
2018,07,05,01,22,12.90
2018,07,05,01,23,6.40
2018,07,05,01,24,14.50
2018,07,05,01,25,12.90
2018,07,05,01,26,14.50
2018,07,05,01,27,19.30
2018,07,05,01,28,6.40
2018,07,05,01,29,9.60
2018,07,05,01,30,9.60
2018,07,05,01,31,4.80
2018,07,05,01,32,8.10
2018,07,05,01,33,14.50
2018,07,05,01,34,9.60
2018,07,05,01,35,9.60
2018,07,05,01,36,6.40
2018,07,05,01,37,9.60
2018,07,05,01,38,12.90
2018,07,05,01,39,9.60
2018,07,05,01,40,12.90
2018,07,05,01,41,3.20
2018,07,05,01,42,8.10
2018,07,05,01,43,6.40
2018,07,05,01,45,8.10
2018,07,05,01,46,19.30
2018,07,05,01,47,9.60
2018,07,05,01,48,3.20
2018,07,05,01,49,12.90
2018,07,05,01,50,12.90
2018,07,05,01,51,16.10
2018,07,05,01,52,9.60
2018,07,05,01,53,4.80
2018,07,05,01,54,3.20
2018,07,05,01,56,1.60
2018,07,05,01,57,9.60
2018,07,05,01,58,8.10
2018,07,05,01,59,6.40
2018,07,05,02,00,8.10
2018,07,05,02,01,9.60
2018,07,05,02,02,8.10
2018,07,05,02,03,6.40
2018,07,05,02,04,12.90
2018,07,05,02,05,9.60
2018,07,05,02,06,4.80
2018,07,05,02,07,8.10
2018,07,05,02,08,8.10
2018,07,05,02,09,1.60
2018,07,05,02,10,1.60
2018,07,05,02,12,1.60
2018,07,05,02,13,1.60
2018,07,05,02,22,4.80
2018,07,05,02,24,3.20
2018,07,05,02,27,4.80
2018,07,05,02,28,1.60
2018,07,05,02,29,1.60
2018,07,05,05,11,1.60
2018,07,05,06,05,4.80
2018,07,05,06,06,4.80
2018,07,05,06,07,3.20
2018,07,05,06,26,4.80
2018,07,05,06,27,3.20
2018,07,05,06,28,3.20
2018,07,05,06,32,1.60
2018,07,05,06,33,3.20
2018,07,05,06,43,1.60
2018,07,05,07,30,1.60
2018,07,05,09,46,9.60
2018,07,05,09,47,1.60
2018,07,05,09,50,1.60
2018,07,05,09,51,3.20
2018,07,05,09,56,3.20
2018,07,05,09,57,4.80
2018,07,05,09,58,6.40
2018,07,05,09,59,8.10
2018,07,05,10,00,4.80
2018,07,05,10,01,3.20
2018,07,05,10,02,3.20
2018,07,05,10,03,4.80
2018,07,05,10,06,9.60
2018,07,05,10,07,6.40
2018,07,05,10,08,3.20
2018,07,05,10,09,1.60
2018,07,05,10,31,1.60
2018,07,05,10,32,4.80
2018,07,05,10,33,1.60
2018,07,05,10,36,1.60
2018,07,05,10,39,4.80
2018,07,05,10,40,6.40
2018,07,05,10,41,6.40
2018,07,05,10,42,4.80
2018,07,05,10,51,8.10
2018,07,05,10,52,6.40
2018,07,05,10,53,4.80
2018,07,05,10,54,4.80
2018,07,05,10,55,1.60
2018,07,05,10,56,6.40
2018,07,05,10,57,6.40
2018,07,05,10,58,1.60
2018,07,05,11,52,1.60
2018,07,05,11,54,4.80
2018,07,05,11,55,3.20
2018,07,05,11,56,4.80
2018,07,05,11,57,1.60
2018,07,05,11,59,1.60
2018,07,05,12,00,1.60
2018,07,05,12,01,3.20
2018,07,05,12,02,6.40
2018,07,05,12,03,4.80
2018,07,05,12,04,9.60
2018,07,05,12,05,6.40
2018,07,05,12,06,8.10
2018,07,05,12,07,8.10
2018,07,05,12,09,3.20
2018,07,05,12,15,4.80
2018,07,05,12,16,9.60
2018,07,05,12,17,4.80
2018,07,05,12,18,8.10
2018,07,05,12,19,1.60
2018,07,05,12,20,6.40
2018,07,05,12,21,6.40
2018,07,05,12,22,8.10
2018,07,05,12,23,3.20
2018,07,05,12,24,3.20
2018,07,05,12,25,4.80
2018,07,05,12,27,4.80
2018,07,05,12,28,4.80
2018,07,05,12,29,1.60
2018,07,05,12,30,1.60
2018,07,05,12,37,4.80
2018,07,05,12,38,4.80
2018,07,05,12,39,3.20
2018,07,05,12,40,4.80
2018,07,05,12,41,3.20
2018,07,05,12,42,1.60
2018,07,05,12,58,6.40
2018,07,05,12,59,6.40
2018,07,05,13,00,3.20
2018,07,05,13,01,1.60
2018,07,05,13,02,1.60
2018,07,05,13,03,3.20
2018,07,05,13,04,3.20
2018,07,05,13,05,3.20
2018,07,05,13,06,1.60
2018,07,05,13,07,3.20
2018,07,05,13,08,4.80
2018,07,05,13,09,4.80
2018,07,05,13,16,3.20
2018,07,05,13,17,6.40
2018,07,05,13,18,4.80
2018,07,05,13,19,4.80
2018,07,05,13,20,6.40
2018,07,05,13,21,3.20
2018,07,05,13,22,1.60
2018,07,05,13,25,3.20
2018,07,05,13,26,3.20
2018,07,05,13,27,6.40
2018,07,05,13,28,6.40
2018,07,05,13,29,3.20
2018,07,05,13,31,6.40
2018,07,05,13,32,6.40
2018,07,05,13,33,6.40
2018,07,05,13,34,6.40
2018,07,05,13,35,4.80
2018,07,05,13,36,6.40
2018,07,05,13,37,4.80
2018,07,05,13,38,6.40
2018,07,05,13,39,1.60
2018,07,05,13,40,6.40
2018,07,05,13,41,4.80
2018,07,05,13,42,4.80
2018,07,05,13,43,3.20
2018,07,05,13,44,3.20
2018,07,05,13,48,3.20
2018,07,05,13,49,3.20
2018,07,05,13,50,6.40
2018,07,05,13,51,6.40
2018,07,05,13,52,6.40
2018,07,05,13,53,8.10
2018,07,05,13,54,6.40
2018,07,05,13,55,17.70
2018,07,05,13,56,14.50
2018,07,05,13,57,8.10
2018,07,05,13,58,14.50
2018,07,05,13,59,8.10
2018,07,05,14,00,14.50
2018,07,05,14,01,12.90
2018,07,05,14,02,3.20
2018,07,05,14,03,9.60
2018,07,05,14,04,17.70
2018,07,05,14,05,19.30
2018,07,05,14,06,14.50
2018,07,05,14,07,6.40
2018,07,05,14,08,8.10
2018,07,05,14,09,14.50
2018,07,05,14,10,14.50
2018,07,05,14,11,14.50
2018,07,05,14,12,12.90
2018,07,05,14,13,14.50
2018,07,05,14,14,9.60
2018,07,05,14,15,22.50
2018,07,05,14,16,29.00
2018,07,05,14,17,17.70
2018,07,05,14,18,11.30
2018,07,05,14,19,14.50
2018,07,05,14,20,9.60
2018,07,05,14,21,6.40
2018,07,05,14,22,11.30
2018,07,05,14,23,25.70
2018,07,05,14,24,16.10
2018,07,05,14,25,8.10
2018,07,05,14,26,14.50
2018,07,05,14,27,8.10
2018,07,05,14,28,17.70
2018,07,05,14,29,8.10
2018,07,05,14,30,16.10
2018,07,05,14,31,11.30
2018,07,05,14,32,9.60
2018,07,05,14,33,6.40
2018,07,05,14,34,14.50
2018,07,05,14,35,9.60
2018,07,05,14,36,8.10
2018,07,05,14,37,14.50
2018,07,05,14,38,14.50
2018,07,05,14,39,12.90
2018,07,05,14,40,17.70
2018,07,05,14,41,17.70
2018,07,05,14,42,6.40
2018,07,05,14,43,3.20
2018,07,05,14,44,9.60
2018,07,05,14,45,9.60
2018,07,05,14,46,14.50
2018,07,05,14,47,16.10
2018,07,05,14,48,17.70
2018,07,05,14,49,14.50
2018,07,05,14,50,17.70
2018,07,05,14,51,25.70
2018,07,05,14,52,22.50
2018,07,05,14,53,14.50
2018,07,05,14,54,24.20
2018,07,05,14,55,25.70
2018,07,05,14,56,17.70
2018,07,05,14,57,22.50
2018,07,05,14,58,19.30
2018,07,05,14,59,24.20
2018,07,05,15,00,30.60
2018,07,05,15,01,22.50
2018,07,05,15,02,20.90
2018,07,05,15,03,25.70
2018,07,05,15,04,35.40
2018,07,05,15,05,22.50
2018,07,05,15,06,16.10
2018,07,05,15,07,20.90
2018,07,05,15,08,22.50
2018,07,05,15,09,22.50
2018,07,05,15,10,30.60
2018,07,05,15,11,25.70
2018,07,05,15,12,24.20
2018,07,05,15,13,16.10
2018,07,05,15,14,24.20
2018,07,05,15,15,27.40
2018,07,05,15,16,25.70
2018,07,05,15,17,32.20
2018,07,05,15,18,29.00
2018,07,05,15,19,22.50
2018,07,05,15,20,19.30
2018,07,05,15,21,22.50
2018,07,05,15,22,19.30
2018,07,05,15,23,27.40
2018,07,05,15,24,17.70
2018,07,05,15,25,17.70
2018,07,05,15,26,19.30
2018,07,05,15,27,14.50
2018,07,05,15,28,29.00
2018,07,05,15,29,14.50
2018,07,05,15,30,14.50
2018,07,05,15,31,20.90
2018,07,05,15,32,16.10
2018,07,05,15,33,17.70
2018,07,05,15,34,11.30
2018,07,05,15,35,20.90
2018,07,05,15,36,22.50
2018,07,05,15,37,17.70
2018,07,05,15,38,25.70
2018,07,05,15,39,30.60
2018,07,05,15,40,16.10
2018,07,05,15,41,11.30
2018,07,05,15,42,19.30
2018,07,05,15,43,17.70
2018,07,05,15,44,14.50
2018,07,05,15,45,11.30
2018,07,05,15,46,22.50
2018,07,05,15,47,9.60
2018,07,05,15,48,19.30
2018,07,05,15,49,25.70
2018,07,05,15,50,20.90
2018,07,05,15,51,17.70
2018,07,05,15,52,12.90
2018,07,05,15,53,9.60
2018,07,05,15,54,9.60
2018,07,05,15,55,19.30
2018,07,05,15,56,12.90
2018,07,05,15,57,19.30
2018,07,05,15,58,16.10
2018,07,05,15,59,27.40
2018,07,05,16,00,14.50
2018,07,05,16,01,12.90
2018,07,05,16,02,20.90
2018,07,05,16,03,16.10
2018,07,05,16,04,16.10
2018,07,05,16,05,17.70
2018,07,05,16,06,14.50
2018,07,05,16,07,12.90
2018,07,05,16,08,17.70
2018,07,05,16,09,12.90
2018,07,05,16,10,11.30
2018,07,05,16,11,6.40
2018,07,05,16,12,9.60
2018,07,05,16,13,12.90
2018,07,05,16,14,19.30
2018,07,05,16,15,14.50
2018,07,05,16,16,11.30
2018,07,05,16,17,19.30
2018,07,05,16,18,20.90
2018,07,05,16,19,14.50
2018,07,05,16,20,14.50
2018,07,05,16,21,12.90
2018,07,05,16,22,9.60
2018,07,05,16,23,12.90
2018,07,05,16,24,11.30
2018,07,05,16,25,20.90
2018,07,05,16,26,22.50
2018,07,05,16,27,12.90
2018,07,05,16,28,14.50
2018,07,05,16,29,8.10
2018,07,05,16,30,9.60
2018,07,05,16,31,12.90
2018,07,05,16,32,9.60
2018,07,05,16,33,14.50
2018,07,05,16,34,22.50
2018,07,05,16,35,17.70
2018,07,05,16,36,20.90
2018,07,05,16,37,11.30
2018,07,05,16,38,17.70
2018,07,05,16,39,11.30
2018,07,05,16,40,12.90
2018,07,05,16,41,16.10
2018,07,05,16,42,22.50
2018,07,05,16,43,12.90
2018,07,05,16,44,12.90
2018,07,05,16,45,16.10
2018,07,05,16,46,14.50
2018,07,05,16,47,6.40
2018,07,05,16,48,22.50
2018,07,05,16,49,17.70
2018,07,05,16,50,8.10
2018,07,05,16,51,12.90
2018,07,05,16,52,8.10
2018,07,05,16,53,8.10
2018,07,05,16,54,17.70
2018,07,05,16,55,16.10
2018,07,05,16,56,19.30
2018,07,05,16,57,8.10
2018,07,05,16,58,14.50
2018,07,05,16,59,16.10
2018,07,05,17,00,9.60
2018,07,05,17,01,9.60
2018,07,05,17,02,17.70
2018,07,05,17,03,20.90
2018,07,05,17,04,17.70
2018,07,05,17,05,22.50
2018,07,05,17,06,14.50
2018,07,05,17,07,16.10
2018,07,05,17,08,22.50
2018,07,05,17,09,12.90
2018,07,05,17,10,20.90
2018,07,05,17,11,14.50
2018,07,05,17,12,9.60
2018,07,05,17,13,8.10
2018,07,05,17,14,14.50
2018,07,05,17,15,16.10
2018,07,05,17,16,8.10
2018,07,05,17,17,14.50
2018,07,05,17,18,20.90
2018,07,05,17,19,19.30
2018,07,05,17,20,32.20
2018,07,05,17,21,25.70
2018,07,05,17,22,24.20
2018,07,05,17,23,25.70
2018,07,05,17,24,22.50
2018,07,05,17,25,25.70
2018,07,05,17,26,25.70
2018,07,05,17,27,24.20
2018,07,05,17,28,19.30
2018,07,05,17,29,22.50
2018,07,05,17,30,19.30
2018,07,05,17,31,16.10
2018,07,05,17,32,19.30
2018,07,05,17,33,32.20
2018,07,05,17,34,32.20
2018,07,05,17,35,22.50
2018,07,05,17,36,20.90
2018,07,05,17,37,24.20
2018,07,05,17,38,25.70
2018,07,05,17,39,33.80
2018,07,05,17,40,30.60
2018,07,05,17,41,20.90
2018,07,05,17,42,20.90
2018,07,05,17,43,19.30
2018,07,05,17,44,22.50
2018,07,05,17,45,14.50
2018,07,05,17,46,24.20
2018,07,05,17,47,20.90
2018,07,05,17,48,17.70
2018,07,05,17,49,22.50
2018,07,05,17,50,29.00
2018,07,05,17,51,30.60
2018,07,05,17,52,27.40
2018,07,05,17,53,22.50
2018,07,05,17,54,25.70
2018,07,05,17,55,25.70
2018,07,05,17,56,37.00
2018,07,05,17,57,25.70
2018,07,05,17,58,12.90
2018,07,05,17,59,12.90
2018,07,05,18,00,19.30
2018,07,05,18,01,24.20
2018,07,05,18,02,29.00
2018,07,05,18,03,27.40
2018,07,05,18,04,20.90
2018,07,05,18,05,20.90
2018,07,05,18,06,19.30
2018,07,05,18,07,11.30
2018,07,05,18,08,20.90
2018,07,05,18,09,24.20
2018,07,05,18,10,14.50
2018,07,05,18,11,20.90
2018,07,05,18,12,20.90
2018,07,05,18,13,17.70
2018,07,05,18,14,17.70
2018,07,05,18,15,20.90
2018,07,05,18,16,25.70
2018,07,05,18,17,20.90
2018,07,05,18,18,25.70
2018,07,05,18,19,24.20
2018,07,05,18,20,24.20
2018,07,05,18,21,20.90
2018,07,05,18,22,17.70
2018,07,05,18,23,17.70
2018,07,05,18,24,8.10
2018,07,05,18,25,12.90
2018,07,05,18,26,20.90
2018,07,05,18,27,25.70
2018,07,05,18,28,22.50
2018,07,05,18,29,11.30
2018,07,05,18,30,20.90
2018,07,05,18,31,20.90
2018,07,05,18,32,17.70
2018,07,05,18,33,14.50
2018,07,05,18,34,14.50
2018,07,05,18,35,17.70
2018,07,05,18,36,17.70
2018,07,05,18,37,24.20
2018,07,05,18,38,19.30
2018,07,05,18,39,20.90
2018,07,05,18,40,25.70
2018,07,05,18,41,25.70
2018,07,05,18,42,16.10
2018,07,05,18,43,19.30
2018,07,05,18,44,17.70
2018,07,05,18,45,14.50
2018,07,05,18,46,16.10
2018,07,05,18,47,11.30
2018,07,05,18,48,8.10
2018,07,05,18,49,12.90
2018,07,05,18,50,19.30
2018,07,05,18,51,9.60
2018,07,05,18,52,16.10
2018,07,05,18,53,8.10
2018,07,05,18,54,16.10
2018,07,05,18,55,14.50
2018,07,05,18,56,17.70
2018,07,05,18,57,19.30
2018,07,05,18,58,22.50
2018,07,05,18,59,24.20
2018,07,05,19,00,16.10
2018,07,05,19,01,20.90
2018,07,05,19,02,17.70
2018,07,05,19,03,16.10
2018,07,05,19,04,17.70
2018,07,05,19,05,17.70
2018,07,05,19,06,19.30
2018,07,05,19,07,12.90
2018,07,05,19,08,19.30
2018,07,05,19,09,20.90
2018,07,05,19,10,17.70
2018,07,05,19,11,16.10
2018,07,05,19,12,12.90
2018,07,05,19,13,19.30
2018,07,05,19,14,27.40
2018,07,05,19,15,24.20
2018,07,05,19,16,20.90
2018,07,05,19,17,20.90
2018,07,05,19,18,19.30
2018,07,05,19,19,14.50
2018,07,05,19,20,20.90
2018,07,05,19,21,8.10
2018,07,05,19,22,8.10
2018,07,05,19,23,6.40
2018,07,05,19,24,8.10
2018,07,05,19,25,17.70
2018,07,05,19,26,17.70
2018,07,05,19,27,16.10
2018,07,05,19,28,17.70
2018,07,05,19,29,9.60
2018,07,05,19,30,19.30
2018,07,05,19,31,16.10
2018,07,05,19,32,14.50
2018,07,05,19,33,12.90
2018,07,05,19,34,11.30
2018,07,05,19,35,9.60
2018,07,05,19,36,12.90
2018,07,05,19,37,16.10
2018,07,05,19,38,12.90
2018,07,05,19,39,19.30
2018,07,05,19,40,4.80
2018,07,05,19,41,14.50
2018,07,05,19,42,17.70
2018,07,05,19,43,12.90
2018,07,05,19,44,9.60
2018,07,05,19,45,12.90
2018,07,05,19,46,16.10
2018,07,05,19,47,8.10
2018,07,05,19,48,11.30
2018,07,05,19,49,14.50
2018,07,05,19,50,12.90
2018,07,05,19,51,3.20
2018,07,05,19,52,9.60
2018,07,05,19,53,14.50
2018,07,05,19,54,12.90
2018,07,05,19,55,12.90
2018,07,05,19,56,8.10
2018,07,05,19,57,4.80
2018,07,05,19,58,4.80
2018,07,05,19,59,1.60
2018,07,05,20,00,8.10
2018,07,05,20,01,11.30
2018,07,05,20,02,1.60
2018,07,05,20,03,11.30
2018,07,05,20,04,9.60
2018,07,05,20,05,9.60
2018,07,05,20,06,8.10
2018,07,05,20,07,8.10
2018,07,05,20,08,9.60
2018,07,05,20,09,16.10
2018,07,05,20,10,14.50
2018,07,05,20,11,16.10
2018,07,05,20,12,8.10
2018,07,05,20,13,9.60
2018,07,05,20,14,8.10
2018,07,05,20,15,9.60
2018,07,05,20,16,3.20
2018,07,05,20,17,6.40
2018,07,05,20,18,12.90
2018,07,05,20,19,9.60
2018,07,05,20,20,4.80
2018,07,05,20,21,4.80
2018,07,05,20,22,6.40
2018,07,05,20,23,6.40
2018,07,05,20,24,6.40
2018,07,05,20,25,1.60
2018,07,05,20,26,11.30
2018,07,05,20,27,6.40
2018,07,05,20,28,6.40
2018,07,05,20,29,3.20
2018,07,05,20,30,1.60
2018,07,05,20,31,8.10
2018,07,05,20,32,6.40
2018,07,05,20,33,6.40
2018,07,05,20,34,6.40
2018,07,05,20,35,8.10
2018,07,05,20,36,8.10
2018,07,05,20,37,9.60
2018,07,05,20,38,4.80
2018,07,05,20,39,3.20
2018,07,05,20,40,4.80
2018,07,05,20,41,6.40
2018,07,05,20,42,4.80
2018,07,05,20,43,6.40
2018,07,05,20,44,8.10
2018,07,05,20,45,9.60
2018,07,05,20,46,6.40
2018,07,05,20,47,4.80
2018,07,05,20,48,6.40
2018,07,05,20,49,4.80
2018,07,05,20,50,1.60
2018,07,05,20,52,4.80
2018,07,05,20,53,4.80
2018,07,05,20,54,4.80
2018,07,05,20,55,1.60
2018,07,05,20,58,3.20
2018,07,05,20,59,1.60
2018,07,05,21,00,6.40
2018,07,05,21,01,4.80
2018,07,05,21,02,6.40
2018,07,05,21,03,3.20
2018,07,05,21,04,4.80
2018,07,05,21,05,6.40
2018,07,05,21,06,3.20
2018,07,05,21,11,3.20
2018,07,05,21,12,4.80
2018,07,05,21,13,6.40
2018,07,05,21,14,6.40
2018,07,05,21,15,4.80
2018,07,05,21,16,4.80
2018,07,05,21,17,4.80
2018,07,05,21,18,6.40
2018,07,05,21,19,4.80
2018,07,05,21,28,3.20
2018,07,05,21,29,3.20
